Total_Precipitation_Accumulation
1.99 2.01 1.83 1.72 2.02 1.95 2.37 2.26 2.06 1.93 2.35 2.58 1.83 1.09 0.78 0.47 0.16 0.17 0.15 0.12 0.04 0.03 0.04 0.07 0.13 0.12 0.09 0.03 0.11 0.32 0.42 0.84 0.83 0.65 0.19 0.20 0.33 0.33 0.24 0.86 0.68 0.51 0.70 1.66
2.13 2.52 2.27 1.57 1.99 2.10 2.17 2.19 1.95 2.78 1.58 1.14 0.75 0.48 0.44 0.30 0.11 0.17 0.24 0.15 0.06 0.08 0.07 0.07 0.04 0.02 0.01 0.00 0.03 0.26 0.55 1.15 0.89 0.73 0.52 0.60 0.82 0.38 0.42 0.70 1.12 0.89 0.70 1.25
2.03 2.40 2.61 1.97 1.85 1.95 2.33 2.28 2.16 3.82 2.49 0.62 0.21 0.47 0.54 0.36 0.15 0.18 0.26 0.25 0.11 0.08 0.06 0.03 0.06 0.01 0.02 0.01 0.03 0.25 0.81 0.90 0.93 0.81 0.76 0.98 0.78 0.37 0.61 1.21 1.33 0.51 0.39 0.26
1.89 2.11 2.75 3.11 2.47 2.27 2.32 1.86 1.11 0.99 1.09 0.57 0.21 0.50 0.51 0.46 0.29 0.20 0.21 0.18 0.06 0.15 0.22 0.11 0.06 0.04 0.07 0.05 0.03 0.21 0.73 1.22 1.29 0.55 0.42 0.76 0.68 0.40 0.50 1.05 0.67 0.70 0.32 0.16
2.10 2.00 2.17 2.84 2.48 2.43 1.83 1.24 0.90 0.30 0.20 0.14 0.22 0.32 0.37 0.40 0.40 0.41 0.31 0.22 0.10 0.19 0.22 0.15 0.27 0.22 0.21 0.11 0.05 0.19 0.61 1.03 0.83 0.37 0.26 0.44 0.59 0.30 0.43 0.62 0.47 0.39 0.20 0.20
2.06 1.89 2.08 2.40 2.07 2.45 1.90 1.05 0.81 0.57 0.49 0.27 0.22 0.18 0.19 0.31 0.47 0.40 0.18 0.19 0.31 0.23 0.10 0.17 0.15 0.10 0.07 0.11 0.10 0.16 0.45 0.72 0.97 0.75 0.42 0.63 0.69 0.38 0.40 0.51 0.39 0.28 0.23 0.21
1.75 1.80 1.98 2.17 2.15 2.25 1.88 1.26 1.32 1.03 0.65 0.27 0.19 0.15 0.24 0.37 0.41 0.47 0.28 0.19 0.29 0.19 0.16 0.15 0.10 0.08 0.05 0.09 0.09 0.07 0.19 0.46 0.93 0.90 0.70 0.81 0.60 0.31 0.23 0.25 0.26 0.20 0.18 0.11
1.65 1.68 1.77 1.89 1.93 1.62 1.38 1.17 1.43 1.26 0.77 0.28 0.20 0.16 0.31 0.40 0.39 0.51 0.42 0.21 0.17 0.17 0.19 0.38 0.35 0.19 0.13 0.04 0.04 0.08 0.10 0.30 0.57 0.49 0.38 0.27 0.19 0.18 0.18 0.24 0.19 0.11 0.13 0.06
1.80 1.58 1.47 1.64 1.52 1.44 1.17 1.02 1.32 1.68 1.37 0.44 0.19 0.27 0.38 0.48 0.44 0.54 0.38 0.23 0.24 0.32 0.51 0.69 0.50 0.23 0.15 0.07 0.05 0.04 0.07 0.18 0.58 0.45 0.53 0.23 0.10 0.02 0.02 0.04 0.14 0.02 0.02 0.03
2.03 1.92 1.65 1.65 1.30 1.14 1.09 0.92 1.04 1.60 1.44 0.35 0.13 0.22 0.43 0.66 0.66 0.89 0.63 0.50 0.53 0.50 0.71 0.74 0.40 0.12 0.04 0.07 0.05 0.07 0.22 0.30 0.54 0.50 0.70 0.19 0.05 0.01 0.01 0.10 0.12 0.01 0.04 0.07
1.79 1.91 1.61 1.43 1.14 1.16 1.36 0.80 0.86 1.54 1.52 0.52 0.15 0.16 0.31 0.68 0.74 0.92 0.94 1.17 0.80 0.85 0.92 0.76 0.39 0.29 0.20 0.14 0.06 0.06 0.22 0.37 0.30 0.40 0.55 0.22 0.02 0.05 0.16 0.18 0.06 0.02 0.07 0.07
1.62 1.44 1.31 1.34 1.17 1.15 1.60 1.05 0.67 1.12 1.61 1.11 0.31 0.19 0.18 0.38 0.54 0.90 1.11 1.12 0.63 0.96 1.09 0.96 0.79 0.62 0.33 0.18 0.22 0.03 0.24 0.28 0.38 0.35 0.18 0.07 0.08 0.17 0.14 0.11 0.17 0.06 0.11 0.05
1.60 1.35 1.25 1.29 1.16 1.14 1.66 1.16 0.89 1.42 1.82 1.23 0.54 0.26 0.11 0.19 0.30 0.63 1.10 0.91 0.63 0.90 0.98 1.51 1.21 0.79 0.31 0.31 0.22 0.17 0.13 0.16 0.39 0.27 0.05 0.04 0.09 0.07 0.06 0.10 0.10 0.04 0.06 0.10
1.72 1.46 1.35 1.17 1.08 1.29 1.72 1.16 0.96 1.72 2.68 2.67 0.70 0.10 0.06 0.10 0.30 0.51 0.75 0.92 0.83 0.93 1.17 1.69 1.66 0.90 0.33 0.22 0.19 0.27 0.21 0.17 0.24 0.21 0.03 0.12 0.07 0.05 0.07 0.08 0.03 0.03 0.02 0.03
1.63 1.43 1.39 1.34 1.35 1.71 1.63 1.29 1.20 1.19 2.11 2.41 0.83 0.26 0.11 0.10 0.28 0.52 0.70 0.81 1.14 1.17 1.50 1.70 1.07 0.49 0.48 0.43 0.43 0.45 0.31 0.48 0.55 0.33 0.07 0.38 0.15 0.02 0.04 0.11 0.05 0.06 0.14 0.13
1.47 1.37 1.45 1.54 1.74 2.28 2.44 3.29 1.99 1.11 1.43 3.70 2.67 0.84 0.26 0.16 0.28 0.55 0.76 0.82 0.97 1.48 1.81 1.49 0.81 0.34 1.00 1.63 0.68 0.28 0.19 0.21 0.38 0.37 0.16 0.16 0.09 0.02 0.02 0.10 0.07 0.11 0.20 0.16
1.72 1.70 1.68 1.72 2.00 2.21 2.81 3.18 1.74 1.47 2.34 4.89 3.93 1.91 0.71 0.35 0.45 0.79 0.95 0.99 1.08 1.32 1.92 1.43 0.82 0.54 1.77 2.24 0.89 0.16 0.08 0.04 0.04 0.13 0.33 0.27 0.06 0.11 0.07 0.13 0.10 0.09 0.07 0.06
2.09 2.11 2.16 2.22 2.49 2.78 2.60 1.90 1.59 1.91 3.13 4.12 3.93 1.97 0.86 0.60 0.77 1.07 1.08 1.12 1.25 1.52 1.68 1.22 0.81 0.97 1.61 1.61 0.28 0.08 0.06 0.05 0.03 0.05 0.14 0.25 0.12 0.07 0.09 0.11 0.10 0.09 0.05 0.06
2.86 3.09 3.19 3.64 3.59 2.92 2.36 2.09 2.24 2.38 3.90 5.61 3.28 1.21 0.87 0.85 0.69 0.90 1.10 1.30 1.80 1.73 1.49 1.21 1.09 1.06 1.16 0.66 0.31 0.15 0.12 0.24 0.21 0.05 0.01 0.02 0.06 0.07 0.06 0.08 0.12 0.19 0.16 0.15
3.98 4.09 4.62 4.72 3.62 2.98 3.13 3.99 4.88 5.43 4.91 3.88 2.05 0.83 0.91 0.93 0.92 1.36 1.58 1.66 1.61 1.54 1.06 1.24 1.40 0.82 0.39 0.20 0.16 0.22 0.21 0.21 0.22 0.33 0.31 0.30 0.23 0.13 0.10 0.16 0.22 0.31 0.28 0.22
4.61 4.53 3.99 3.90 3.36 3.95 4.80 5.32 4.76 4.29 3.62 2.38 1.45 1.05 0.96 0.94 1.17 1.46 1.69 1.79 1.52 1.50 0.77 1.18 1.06 0.56 0.19 0.11 0.09 0.06 0.09 0.15 0.20 0.35 0.39 0.44 0.53 0.46 0.35 0.24 0.22 0.21 0.26 0.39
4.29 3.66 3.64 4.18 4.44 4.99 4.73 3.62 2.35 2.14 1.73 1.33 1.01 0.67 0.76 1.09 1.34 1.89 2.21 1.91 1.59 1.21 0.74 1.25 0.55 0.19 0.05 0.08 0.13 0.17 0.18 0.23 0.26 0.33 0.45 0.47 0.53 0.53 0.46 0.40 0.38 0.38 0.38 0.37
4.63 4.72 4.92 4.39 3.83 3.49 2.50 1.47 1.04 0.95 0.76 0.70 0.70 0.77 0.91 1.11 1.42 2.22 2.09 2.01 1.41 0.87 1.02 0.67 0.24 0.09 0.12 0.22 0.17 0.12 0.07 0.14 0.30 0.46 0.59 0.52 0.40 0.31 0.40 0.49 0.48 0.49 0.46 0.50
6.01 5.14 4.49 2.92 2.09 0.97 0.48 0.45 0.48 0.39 0.50 0.61 0.58 0.90 0.98 1.05 1.40 1.65 1.81 1.21 1.11 1.05 0.63 0.25 0.15 0.21 0.29 0.26 0.23 0.24 0.16 0.19 0.37 0.51 0.51 0.44 0.46 0.47 0.45 0.56 0.65 0.64 0.74 0.83
5.21 4.18 2.69 1.45 0.71 0.46 0.53 0.48 0.48 0.62 0.64 0.71 0.87 1.04 1.01 1.27 1.67 1.44 1.41 1.42 0.85 0.32 0.18 0.20 0.32 0.44 0.54 0.55 0.56 0.53 0.41 0.41 0.57 0.74 0.74 0.70 0.46 0.38 0.58 0.84 0.83 0.67 0.69 0.87
4.48 3.38 1.83 0.82 0.53 0.57 0.65 0.64 0.71 0.73 0.77 0.93 1.36 1.51 1.51 1.63 1.59 1.45 0.92 0.74 0.40 0.34 0.49 0.63 0.62 0.72 0.81 0.84 0.87 0.94 0.97 0.96 0.89 1.22 1.39 1.10 0.79 0.78 0.80 0.71 0.83 0.81 0.74 0.75
4.27 1.92 0.88 0.77 0.73 0.80 0.90 0.79 0.79 0.80 1.14 1.22 1.77 2.03 1.26 1.06 1.14 0.53 0.27 0.34 0.34 0.55 0.76 0.87 0.87 0.88 0.78 0.68 0.77 0.92 1.10 1.26 1.08 1.13 1.23 1.36 1.16 0.72 0.40 0.54 0.61 0.51 0.51 0.60